Baton Rouge, LA

8:15 PM CST on February 27, 2017 (GMT -0600)
Baton Rouge Metro-Ryan

Weather History for KBTR - July, 2012

Change the Weather History Date:

Sunday, July 22, 2012

  Actual Average Record
Temperature  
Mean Temperature 82 °F 83 °F  
Max Temperature 90 °F 92 °F 99 °F (1924)
Min Temperature 74 °F 74 °F 63 °F (1915)
Degree Days  
Heating Degree Days 0 0  
Month to date heating degree days 0 0  
Since 1 June heating degree days 0 0  
Since 1 July heating degree days 0 0  
Cooling Degree Days 17 18  
Month to date cooling degree days 391 396  
Year to date cooling degree days 1664 1445  
Since 1 June cooling degree days 851 880  
Growing Degree Days 31 (Base 50)    
Moisture  
Dew Point 74 °F    
Average Humidity 78    
Maximum Humidity 100    
Minimum Humidity 56    
Precipitation  
Precipitation 0.00 in 0.14 in 2.00 in (1921)
Month to date precipitation 6.36 3.57  
Year to date precipitation 37.63 34.50  
Snow  
Snow 0.00 in - - ()
Month to date snowfall 0.0  
Since 1 June snowfall 0.0  
Since 1 July snowfall 0.0  
Snow Depth 0.00 in    
Sea Level Pressure  
Sea Level Pressure 30.05 in    
Wind  
Wind Speed 6 mph (SE)    
Max Wind Speed 16 mph    
Max Gust Speed 21 mph    
Visibility 9 miles    
Events      
T = Trace of Precipitation, MM = Missing Value Source: NWS Daily Summary

Daily Weather History Graph

Daily Weather History Graph

Search for Another Location

Airport or City:

Trip Planner

Search our weather history database for the weather conditions in past years. The results will help you decide how hot, cold, wet, or windy it might be!

Date:

Astronomy

Jul. 22, 2012 Rise Set
Actual Time 6:16 AM CDT 8:04 PM CDT
Civil Twilight 5:50 AM CDT 8:31 PM CDT
Nautical Twilight 5:18 AM CDT 9:03 PM CDT
Astronomical Twilight 4:44 AM CDT 9:37 PM CDT
Moon 9:42 AM CDT (7/22) 10:10 PM CDT (7/22)
Length of Visible Light 14h 41m
Length of Day
13h 48m
Waxing Crescent, 13% of the Moon is Illuminated
Jul 22
Waxing Crescent
Jul 26
First Quarter
Aug 1
Full
Aug 9
Last Quarter
Aug 17
New

Hourly Weather History & Observations

Time (CDT) Temp. Heat Index Dew Point Humidity Pressure Visibility Wind Dir Wind Speed Gust Speed Precip Events Conditions
12:27 AM 77.0 °F - 75.2 °F 94% 30.03 in 8.0 mi Calm Calm - N/A   Overcast
12:53 AM 77.0 °F - 75.0 °F 94% 30.03 in 8.0 mi Calm Calm - N/A   Overcast
1:13 AM 75.2 °F - 75.2 °F 100% 30.02 in 7.0 mi Calm Calm - N/A   Mostly Cloudy
1:27 AM 75.2 °F - 75.2 °F 100% 30.01 in 6.0 mi Calm Calm - N/A   Mostly Cloudy
1:40 AM 75.2 °F - 73.4 °F 94% 30.01 in 6.0 mi Calm Calm - N/A   Scattered Clouds
1:50 AM 75.2 °F - 75.2 °F 100% 30.01 in 6.0 mi Calm Calm - N/A   Mostly Cloudy
1:53 AM 75.9 °F - 75.0 °F 97% 30.01 in 6.0 mi Calm Calm - N/A   Mostly Cloudy
2:01 AM 75.2 °F - 75.2 °F 100% 30.01 in 6.0 mi Calm Calm - N/A   Mostly Cloudy
2:11 AM 75.2 °F - 75.2 °F 100% 30.01 in 6.0 mi Calm Calm - N/A   Overcast
2:34 AM 75.2 °F - 75.2 °F 100% 30.01 in 6.0 mi East 4.6 mph - N/A   Overcast
2:42 AM 75.2 °F - 75.2 °F 100% 30.01 in 6.0 mi East 4.6 mph - N/A   Overcast
2:53 AM 75.9 °F - 75.0 °F 97% 30.01 in 7.0 mi ESE 8.1 mph - N/A   Overcast
3:12 AM 75.2 °F - 75.2 °F 100% 30.01 in 6.0 mi ESE 4.6 mph - N/A   Overcast
3:48 AM 77.0 °F - 73.4 °F 89% 30.01 in 9.0 mi Calm Calm - N/A   Overcast
3:53 AM 77.0 °F - 73.9 °F 90% 30.01 in 10.0 mi Calm Calm - N/A   Overcast
4:53 AM 75.9 °F - 73.9 °F 94% 30.02 in 10.0 mi Calm Calm - N/A   Mostly Cloudy
5:53 AM 73.9 °F - 73.0 °F 97% 30.03 in 8.0 mi Calm Calm - N/A   Clear
6:53 AM 73.9 °F - 73.0 °F 97% 30.04 in 7.0 mi Calm Calm - N/A   Clear
7:53 AM 75.2 °F - 73.4 °F 94% 30.06 in 10.0 mi ESE 5.8 mph - N/A   Clear
8:53 AM 78.1 °F - 75.0 °F 90% 30.08 in 10.0 mi East 4.6 mph - N/A   Clear
9:53 AM 82.0 °F 89.4 °F 75.9 °F 82% 30.09 in 10.0 mi SE 4.6 mph - N/A   Partly Cloudy
10:17 AM 82.4 °F 89.5 °F 75.2 °F 79% 30.10 in 10.0 mi SE 5.8 mph - N/A   Mostly Cloudy
10:53 AM 82.9 °F 90.2 °F 75.0 °F 77% 30.10 in 10.0 mi SSE 5.8 mph - N/A   Mostly Cloudy
11:53 AM 87.1 °F 96.3 °F 75.0 °F 67% 30.10 in 10.0 mi SE 9.2 mph - N/A   Mostly Cloudy
12:53 PM 87.1 °F 95.4 °F 73.9 °F 65% 30.09 in 10.0 mi SE 8.1 mph - N/A   Mostly Cloudy
1:33 PM 87.8 °F 95.6 °F 73.4 °F 62% 30.06 in 10.0 mi SE 10.4 mph - N/A   Scattered Clouds
1:53 PM 87.1 °F 94.5 °F 73.0 °F 63% 30.06 in 10.0 mi SE 8.1 mph - N/A   Scattered Clouds
2:53 PM 88.0 °F 94.7 °F 72.0 °F 59% 30.04 in 10.0 mi SE 9.2 mph - N/A   Mostly Cloudy
3:53 PM 87.1 °F 93.6 °F 72.0 °F 61% 30.05 in 10.0 mi SE 9.2 mph - N/A   Mostly Cloudy
4:53 PM 88.0 °F 95.6 °F 73.0 °F 61% 30.05 in 10.0 mi ESE 12.7 mph 18.4 mph N/A   Scattered Clouds
5:53 PM 89.1 °F 96.0 °F 72.0 °F 57% 30.06 in 10.0 mi SSE 12.7 mph - N/A   Clear
6:53 PM 86.0 °F 93.0 °F 73.0 °F 65% 30.07 in 10.0 mi South 10.4 mph - N/A   Clear
7:53 PM 82.9 °F 88.0 °F 72.0 °F 69% 30.08 in 10.0 mi SSE 6.9 mph - N/A   Clear
8:53 PM 81.0 °F 85.2 °F 72.0 °F 74% 30.09 in 10.0 mi SE 6.9 mph - N/A   Clear
9:53 PM 80.1 °F 84.2 °F 73.0 °F 79% 30.09 in 10.0 mi ESE 3.5 mph - N/A   Clear
10:53 PM 78.1 °F - 73.0 °F 84% 30.10 in 10.0 mi ENE 3.5 mph - N/A   Clear
11:53 PM 75.9 °F - 73.0 °F 91% 30.12 in 10.0 mi ENE 4.6 mph - N/A   Clear